When you browse on this site, cookies collect data to enhance your experience and personalize the content and advertising you see.
Visit our Privacy Policy to learn more. By continuing to use the site, you agree to this use of cookies and data.
  • In Hungary
  • List of Countries
  • For 7 days
  • Water Temperature
  • Weather Map
  • News
  • Weather Widgets
  • user-avatar
    Login

    Hourly Weather Veroli

    Today, 7 December, Saturday

    Time Temperature Precipitation Wind Pressure Humidity
    00:00 +9°C° 0 mm 0 mps 732 mmHg 91%
    01:00 +9°C° 0 mm 0 mps 732 mmHg 90%
    02:00 +9°C° 0 mm 0 mps 731 mmHg 91%
    03:00 +10°C° 0 mm 1 mps 731 mmHg 91%
    04:00 +9°C° 0 mm 1 mps 731 mmHg 91%
    05:00 +9°C° 0 mm 1 mps 731 mmHg 91%
    06:00 +8°C° 0 mm 0 mps 731 mmHg 90%
    07:00 +8°C° 0 mm 0 mps 731 mmHg 90%
    08:00 +9°C° 0 mm 0 mps 731 mmHg 87%
    09:00 +11°C° 0 mm 0 mps 731 mmHg 85%
    10:00 +12°C° 0 mm 0 mps 731 mmHg 82%
    11:00 +12°C° 0 mm 0 mps 731 mmHg 82%
    12:00 +13°C° 0 mm 1 mps 731 mmHg 81%
    13:00 +14°C° 0 mm 1 mps 731 mmHg 81%
    14:00 +13°C° 0.1 mm 1 mps 731 mmHg 83%
    15:00 +12°C° 0.1 mm 0 mps 731 mmHg 86%
    16:00 +11°C° 0.1 mm 0 mps 731 mmHg 89%
    17:00 +11°C° 0 mm 0 mps 731 mmHg 90%
    18:00 +10°C° 0 mm 0 mps 731 mmHg 92%
    19:00 +9°C° 0 mm 0 mps 731 mmHg 93%
    20:00 +9°C° 0 mm 0 mps 731 mmHg 93%
    21:00 +9°C° 0 mm 0 mps 731 mmHg 92%
    22:00 +9°C° 0 mm 0 mps 731 mmHg 92%
    23:00 +9°C° 0 mm 0 mps 731 mmHg 92%

    Tomorrow, 8 December, Sunday

    Time Temperature Precipitation Wind Pressure Humidity
    00:00 +8°C° 0 mm 0 mps 731 mmHg 92%
    01:00 +8°C° 0 mm 0 mps 731 mmHg 91%
    02:00 +8°C° 0 mm 0 mps 731 mmHg 91%
    03:00 +8°C° 0 mm 0 mps 731 mmHg 91%
    04:00 +8°C° 0 mm 0 mps 731 mmHg 91%
    05:00 +8°C° 0 mm 0 mps 731 mmHg 91%
    06:00 +8°C° 0 mm 0 mps 731 mmHg 90%
    07:00 +7°C° 0 mm 0 mps 731 mmHg 90%
    08:00 +9°C° 0 mm 0 mps 731 mmHg 87%
    09:00 +10°C° 0 mm 0 mps 732 mmHg 84%
    10:00 +11°C° 0 mm 0 mps 732 mmHg 81%
    11:00 +12°C° 0 mm 0 mps 732 mmHg 79%
    12:00 +14°C° 0 mm 1 mps 731 mmHg 77%
    13:00 +14°C° 0 mm 1 mps 731 mmHg 75%
    14:00 +14°C° 0.1 mm 1 mps 731 mmHg 79%
    15:00 +13°C° 0.1 mm 1 mps 730 mmHg 83%
    16:00 +13°C° 0.1 mm 1 mps 730 mmHg 86%
    17:00 +12°C° 0.1 mm 1 mps 730 mmHg 88%
    18:00 +11°C° 0.1 mm 1 mps 730 mmHg 90%
    19:00 +10°C° 0.1 mm 0 mps 730 mmHg 92%
    20:00 +11°C° 0 mm 1 mps 730 mmHg 92%
    21:00 +10°C° 0 mm 1 mps 730 mmHg 92%
    22:00 +10°C° 0 mm 1 mps 730 mmHg 92%
    23:00 +10°C° 0 mm 1 mps 729 mmHg 91%

    Day after tomorrow, 9 December, Monday

    Time Temperature Precipitation Wind Pressure Humidity
    00:00 +10°C° 0 mm 1 mps 729 mmHg 91%
    01:00 +9°C° 0 mm 0 mps 728 mmHg 90%
    02:00 +9°C° 0.1 mm 0 mps 728 mmHg 91%
    03:00 +9°C° 0.1 mm 0 mps 728 mmHg 91%
    04:00 +9°C° 0.1 mm 0 mps 727 mmHg 91%
    05:00 +10°C° 0.1 mm 1 mps 727 mmHg 91%
    06:00 +10°C° 0.1 mm 1 mps 727 mmHg 92%
    07:00 +10°C° 0.1 mm 1 mps 727 mmHg 92%
    08:00 +11°C° 0.2 mm 1 mps 726 mmHg 92%
    09:00 +11°C° 0.2 mm 1 mps 726 mmHg 91%
    10:00 +12°C° 0.2 mm 1 mps 726 mmHg 90%
    11:00 +12°C° 1.4 mm 2 mps 725 mmHg 92%
    12:00 +12°C° 1.4 mm 2 mps 724 mmHg 94%
    13:00 +12°C° 1.4 mm 2 mps 724 mmHg 97%
    14:00 +12°C° 1.2 mm 2 mps 723 mmHg 94%
    15:00 +10°C° 1.2 mm 2 mps 723 mmHg 91%
    16:00 +11°C° 1.2 mm 1 mps 722 mmHg 89%
    17:00 +11°C° 0.1 mm 1 mps 722 mmHg 87%
    18:00 +10°C° 0.1 mm 1 mps 722 mmHg 86%
    19:00 +9°C° 0.1 mm 1 mps 722 mmHg 85%
    20:00 +9°C° 0 mm 1 mps 722 mmHg 85%
    21:00 +8°C° 0 mm 1 mps 722 mmHg 84%
    22:00 +8°C° 0 mm 1 mps 722 mmHg 84%
    23:00 +7°C° 0 mm 1 mps 722 mmHg 85%

    10 December, Tuesday

    Time Temperature Precipitation Wind Pressure Humidity
    00:00 +7°C° 0 mm 1 mps 722 mmHg 85%
    01:00 +7°C° 0 mm 1 mps 721 mmHg 85%
    02:00 +7°C° 0 mm 1 mps 721 mmHg 85%
    03:00 +6°C° 0 mm 1 mps 721 mmHg 85%
    04:00 +6°C° 0 mm 1 mps 721 mmHg 86%
    05:00 +6°C° 0 mm 1 mps 721 mmHg 85%
    06:00 +5°C° 0 mm 2 mps 721 mmHg 84%
    07:00 +5°C° 0 mm 2 mps 721 mmHg 84%
    08:00 +6°C° 0.1 mm 2 mps 722 mmHg 82%
    09:00 +7°C° 0.1 mm 2 mps 723 mmHg 80%
    10:00 +8°C° 0.1 mm 2 mps 723 mmHg 79%
    11:00 +8°C° 0.2 mm 3 mps 723 mmHg 75%
    12:00 +9°C° 0.2 mm 3 mps 724 mmHg 72%
    13:00 +8°C° 0.2 mm 4 mps 724 mmHg 69%
    14:00 +7°C° 0.1 mm 4 mps 724 mmHg 71%
    15:00 +7°C° 0.1 mm 3 mps 724 mmHg 72%
    16:00 +7°C° 0.1 mm 3 mps 725 mmHg 74%
    17:00 +5°C° 0.1 mm 3 mps 725 mmHg 76%
    18:00 +4°C° 0.1 mm 3 mps 726 mmHg 79%
    19:00 +4°C° 0.1 mm 4 mps 726 mmHg 81%
    20:00 +3°C° 0.1 mm 3 mps 727 mmHg 80%
    21:00 +3°C° 0.1 mm 3 mps 727 mmHg 80%
    22:00 +3°C° 0.1 mm 3 mps 727 mmHg 79%
    23:00 +2°C° 0 mm 3 mps 727 mmHg 79%

    11 December, Wednesday

    Time Temperature Precipitation Wind Pressure Humidity
    00:00 +2°C° 0 mm 3 mps 728 mmHg 79%
    01:00 +2°C° 0 mm 3 mps 728 mmHg 80%
    02:00 +1°C° 0 mm 3 mps 727 mmHg 80%
    03:00 +1°C° 0 mm 3 mps 727 mmHg 80%
    04:00 +1°C° 0 mm 3 mps 727 mmHg 80%
    05:00 +1°C° 0 mm 3 mps 727 mmHg 80%
    06:00 +1°C° 0 mm 2 mps 727 mmHg 80%
    07:00 +1°C° 0 mm 2 mps 727 mmHg 80%
    08:00 +2°C° 0 mm 2 mps 727 mmHg 74%
    09:00 +4°C° 0 mm 2 mps 727 mmHg 68%
    10:00 +6°C° 0 mm 1 mps 728 mmHg 63%
    11:00 +7°C° 0 mm 1 mps 727 mmHg 58%
    12:00 +8°C° 0 mm 1 mps 727 mmHg 53%
    13:00 +9°C° 0 mm 1 mps 727 mmHg 49%
    14:00 +8°C° 0 mm 1 mps 727 mmHg 54%
    15:00 +7°C° 0 mm 1 mps 727 mmHg 59%
    16:00 +6°C° 0 mm 0 mps 726 mmHg 65%
    17:00 +6°C° 0 mm 1 mps 726 mmHg 65%
    18:00 +5°C° 0 mm 1 mps 726 mmHg 65%
    19:00 +4°C° 0 mm 1 mps 726 mmHg 65%
    20:00 +4°C° 0 mm 1 mps 726 mmHg 65%
    21:00 +3°C° 0 mm 0 mps 726 mmHg 64%
    22:00 +3°C° 0 mm 0 mps 727 mmHg 64%
    23:00 +3°C° 0 mm 0 mps 726 mmHg 64%

    12 December, Thursday

    Time Temperature Precipitation Wind Pressure Humidity
    00:00 +3°C° 0 mm 0 mps 726 mmHg 63%
    01:00 +3°C° 0 mm 0 mps 726 mmHg 63%
    02:00 +3°C° 0 mm 0 mps 726 mmHg 63%
    03:00 +4°C° 0 mm 1 mps 725 mmHg 63%
    04:00 +5°C° 0 mm 1 mps 725 mmHg 62%
    05:00 +5°C° 0.2 mm 1 mps 725 mmHg 67%
    06:00 +5°C° 0.2 mm 1 mps 725 mmHg 73%
    07:00 +5°C° 0.2 mm 1 mps 724 mmHg 78%
    08:00 +5°C° 0.1 mm 1 mps 725 mmHg 80%
    09:00 +5°C° 0.1 mm 2 mps 725 mmHg 81%
    10:00 +5°C° 0.1 mm 2 mps 725 mmHg 83%
    11:00 +7°C° 0.1 mm 1 mps 725 mmHg 83%
    12:00 +7°C° 0.1 mm 1 mps 724 mmHg 84%
    13:00 +8°C° 0.1 mm 1 mps 724 mmHg 84%
    14:00 +8°C° 0.1 mm 1 mps 724 mmHg 84%
    15:00 +8°C° 0.1 mm 1 mps 724 mmHg 85%
    16:00 +7°C° 0.1 mm 1 mps 724 mmHg 85%
    17:00 +6°C° 0 mm 1 mps 725 mmHg 86%
    18:00 +5°C° 0 mm 1 mps 725 mmHg 86%
    19:00 +5°C° 0 mm 1 mps 725 mmHg 86%
    20:00 +4°C° 0 mm 1 mps 725 mmHg 86%
    21:00 +4°C° 0 mm 1 mps 725 mmHg 86%
    22:00 +4°C° 0 mm 1 mps 725 mmHg 86%
    23:00 +4°C° 0 mm 1 mps 725 mmHg 85%
    Show more